Showing default

FLOCK 4G 8, 62613

Orbit data source: Space-Track

FLOCK 4G 8, 62613 is a payload satellite owned by Planet (US) in SSO that was launched on Tue, 14 Jan 2025 UTC via an FALCON 9 launch vehicle from the Air Force Western Test Range (AFWTR). Payload-class satellites include a variety of spacecraft equipped with specific instruments for various scientific and technological missions. These include communications satellites like Starlink; space stations such as the ISS; scientific satellites like the Hubble; Earth observation satellites from companies like Planet Labs, Umbra, and HawkEye 360; GPS; miniature CubeSats for education and research; and military/defense satellites.

Loading next visibility...
Identifier
62613, 2025-009E
Orbit
SSO
Country
Flag of USUS
Related business
Manufacturer
Planet
Mission
Operational Commercial Imaging
Bus & Motor
CUBESAT 3U, Unknown motor
Mass
5.7 kg wet, 5.7 kg dry
Launch date (UTC)
2025-01-14 (1 year ago)
Launch vehicle
FALCON 9
Launch site
Air Force Western Test Range (AFWTR)
Object type
Payload
Rocket body
Debris
Shape & HBR
Box + 2 Pan, 1.0 m
Radar Cross Section
0.072 m², Medium (>0.1 m² and < 1m²)

Expand to show TLE details & history
Last TLE update: 12 hours ago

TLE from 12 hours ago
0 FLOCK 4G 8
1 62613U 25009E   26095.18126259  .00014890  00000-0  54149-3 0  9998
2 62613  97.4019 177.5687 0004082 194.5554 165.5569 15.28344127 67768
Epoch: 2026-04-05T04:21Z
TLE epoch observation values (Epoch: 2026-04-05T04:21:01.087Z)
Latitude
-0.00002°
Longitude
-81.1762°
Altitude
486.576 km
Speed
7.62 km/s
True Right ascension
11h 50m 16s
True Declination
0° 00' 00"
Sunlit
Object was in full shadow at epoch
Visualization orbit readout
Latitude
Unknown
Longitude
Unknown
Altitude
Unknown
Speed
Unknown
Apparent Right ascension
Unknown
Apparent Declination
Unknown
Sunlit
N/A
Visualization observer readout
Local Sidereal Time
21:59:12
Azimuth
Unknown
Elevation
Unknown
Doppler factor
Unknown
Orbital elements
Apogee altitude
480.515 km
Perigee altitude
474.918 km
Semi-major axis
6,855.854 km
Eccentricity
0.00041
Inclination
97.4019°
RAAN
177.5687°
Arg. of periapsis
194.5554°
True anomaly
165.56856°
Mean anomaly
165.5569°
Eccentric anomaly
165.56273°
Mean motion
3.82341 °/min
Orbital period
94.16 mins
BSTAR
0.00054149
Loading maneuver chart data...
Computing Atmospheric mass density...
Loading historical data...
Loading historical data...
Loading historical data...
Loading historical data...
Loading historical data...
Loading historical data...
Loading historical data...

Documentation

Showing up to 5 results
|